Weather History for Clarion, IA

Change the Weather History Date:

Tuesday, March 5, 2013

  Actual Average Record
Temperature  
Mean Temperature 26 °F -  
Max Temperature 28 °F 37 °F 64 °F (1983)
Min Temperature 23 °F 17 °F -25 °F (1960)
Degree Days  
Heating Degree Days 40    
Moisture  
Dew Point 23 °F    
Average Humidity 89    
Maximum Humidity 100    
Minimum Humidity 80    
Precipitation  
Precipitation 0.06 in - - ()
Sea Level Pressure  
Sea Level Pressure 30.05 in    
Wind  
Wind Speed 12 mph (NW)    
Max Wind Speed 26 mph    
Max Gust Speed 34 mph    
Visibility 6 miles    
Events Rain , Snow    
Averages and records for this station are not official NWS values.
T = Trace of Precipitation, MM = Missing Value Source: NWS Daily Summary

Daily Weather History Graph

Daily Weather History Graph

Search for Another Location

Airport:

Trip Planner

Search our weather history database for the weather conditions in past years. The results will help you decide how hot, cold, wet, or windy it might be!

Date:

Astronomy

Mar. 05, 2013 Rise Set
Actual Time 6:43 AM CST 6:09 PM CST
Civil Twilight 6:15 AM CST 6:38 PM CST
Nautical Twilight 5:42 AM CST 7:10 PM CST
Astronomical Twilight 5:09 AM CST 7:43 PM CST
Moon 2:02 AM CST (3/5) 11:43 AM CST (3/5)
Length of Visible Light 12h 22m
Length of Day
11h 26m
Last Quarter, 40% of the Moon is Illuminated
Mar 5
Last Quarter
Mar 11
New
Mar 19
First Quarter
Mar 27
Full
Apr 2
Last Quarter

Hourly Weather History & Observations

Time (CST) Temp. Windchill Dew Point Humidity Pressure Visibility Wind Dir Wind Speed Gust Speed Precip Events Conditions
12:15 AM 26.6 °F 19.1 °F 24.8 °F 93% 29.94 in 4.0 mi SE 6.9 mph - N/A Snow Light Snow
12:35 AM 26.6 °F 20.0 °F 24.8 °F 93% 29.94 in 3.0 mi SE 5.8 mph - N/A Snow Light Snow
12:55 AM 26.6 °F 21.2 °F 24.8 °F 93% 29.94 in 1.0 mi SE 4.6 mph - 0.01 in Snow Light Snow
1:15 AM 26.6 °F - 24.8 °F 93% 29.94 in 1.2 mi Calm Calm - N/A Snow Light Snow
1:35 AM 26.6 °F - 24.8 °F 93% 29.94 in 2.0 mi Calm Calm - N/A Snow Light Snow
1:55 AM 26.6 °F - 24.8 °F 93% 29.94 in 2.0 mi Calm Calm - 0.01 in Snow Light Snow
2:15 AM 26.6 °F - 24.8 °F 93% 29.93 in 1.2 mi Calm Calm - N/A Snow Light Snow
2:35 AM 26.6 °F - 24.8 °F 93% 29.93 in 1.5 mi Calm Calm - N/A Snow Light Snow
2:55 AM 26.6 °F - 24.8 °F 93% 29.94 in 2.5 mi Calm Calm - 0.01 in Snow Light Snow
3:15 AM 26.6 °F - 24.8 °F 93% 29.93 in 1.5 mi Calm Calm - N/A Snow Light Snow
3:35 AM 26.6 °F - 24.8 °F 93% 29.93 in 1.2 mi Calm Calm - N/A Snow Light Snow
3:55 AM 26.6 °F 20.0 °F 26.6 °F 100% 29.92 in 2.0 mi WNW 5.8 mph - 0.01 in Snow Light Snow
4:15 AM 28.4 °F 18.0 °F 24.8 °F 86% 29.93 in 6.0 mi NW 12.7 mph - N/A   Mostly Cloudy
4:35 AM 26.6 °F 16.2 °F 24.8 °F 93% 29.94 in 6.0 mi NW 11.5 mph - N/A Snow Light Snow
4:55 AM 26.6 °F 15.7 °F 24.8 °F 93% 29.93 in 4.0 mi WNW 12.7 mph - 0.02 in Snow Light Snow
5:15 AM 26.6 °F 14.3 °F 24.8 °F 93% 29.94 in 1.5 mi WNW 16.1 mph - N/A Snow Light Snow
5:35 AM 26.6 °F 12.7 °F 23.0 °F 86% 29.94 in 2.0 mi NW 20.7 mph - N/A Snow Light Snow
5:55 AM 24.8 °F 11.9 °F 23.0 °F 93% 29.94 in 1.5 mi NW 16.1 mph - N/A Snow Light Snow
6:15 AM 24.8 °F 14.0 °F 23.0 °F 93% 29.94 in 8.0 mi NW 11.5 mph - N/A Rain Light Freezing Rain
6:35 AM 24.8 °F 14.0 °F 23.0 °F 93% 29.96 in 10.0 mi WNW 11.5 mph - N/A   Overcast
7:15 AM 24.8 °F 12.9 °F 21.2 °F 86% 29.96 in 10.0 mi WNW 13.8 mph - N/A   Overcast
7:35 AM 24.8 °F 12.9 °F 19.4 °F 80% 29.96 in 10.0 mi WNW 13.8 mph - N/A Rain Light Freezing Rain
7:55 AM 23.0 °F 10.6 °F 19.4 °F 86% 29.97 in 10.0 mi WNW 13.8 mph - N/A Rain Light Freezing Rain
8:15 AM 23.0 °F 10.6 °F 19.4 °F 86% 29.97 in 10.0 mi WNW 13.8 mph - N/A   Mostly Cloudy
8:35 AM 23.0 °F 10.1 °F 19.4 °F 86% 29.97 in 10.0 mi WNW 15.0 mph - N/A Rain Light Freezing Rain
8:55 AM 23.0 °F 12.4 °F 19.4 °F 86% 29.97 in 10.0 mi WNW 10.4 mph - N/A   Overcast
9:15 AM 23.0 °F 11.7 °F 17.6 °F 80% 29.98 in 10.0 mi WNW 11.5 mph - N/A   Mostly Cloudy
9:35 AM 23.0 °F 12.4 °F 17.6 °F 80% 29.97 in 8.0 mi WNW 10.4 mph - N/A Snow Light Snow
9:55 AM 23.0 °F 11.1 °F 19.4 °F 86% 29.98 in 5.0 mi WNW 12.7 mph - N/A Snow Light Snow
10:15 AM 23.0 °F 11.1 °F 19.4 °F 86% 29.97 in 7.0 mi NW 12.7 mph - N/A Snow Light Snow
10:35 AM 24.8 °F 12.9 °F 21.2 °F 86% 29.97 in 1.2 mi NW 13.8 mph - N/A Snow Light Snow
10:55 AM 24.8 °F 12.4 °F 21.2 °F 86% 29.97 in 3.0 mi NW 15.0 mph - N/A Snow Light Snow
11:15 AM 26.6 °F 13.1 °F 23.0 °F 86% 29.97 in 7.0 mi NW 19.6 mph - N/A Rain Light Freezing Rain
11:35 AM 26.6 °F 12.7 °F 23.0 °F 86% 29.97 in 5.0 mi NW 20.7 mph - N/A Rain Light Freezing Rain
11:55 AM 26.6 °F 14.3 °F 24.8 °F 93% 29.98 in 4.0 mi NW 16.1 mph - N/A Snow Light Snow
12:15 PM 28.4 °F 15.1 °F 24.8 °F 86% 29.99 in 4.0 mi NW 20.7 mph - N/A Rain Light Freezing Rain
12:35 PM 28.4 °F 14.4 °F 24.8 °F 86% 29.99 in 6.0 mi NNW 23.0 mph 28.8 mph N/A   Mostly Cloudy
12:55 PM 28.4 °F 14.4 °F 24.8 °F 86% 30.00 in 6.0 mi NW 23.0 mph - N/A   Overcast
1:15 PM 28.4 °F 15.4 °F 24.8 °F 86% 30.00 in 6.0 mi NNW 19.6 mph - N/A   Light Freezing Rain
1:35 PM 28.4 °F 14.7 °F 24.8 °F 86% 30.01 in 4.0 mi NNW 21.9 mph - N/A   Light Freezing Rain
1:55 PM 28.4 °F 14.4 °F 24.8 °F 86% 30.01 in 3.0 mi NNW 23.0 mph - N/A   Light Freezing Rain
2:15 PM 28.4 °F 15.4 °F 26.6 °F 93% 30.02 in 3.0 mi NNW 19.6 mph 25.3 mph N/A Rain Light Freezing Rain
2:35 PM 28.4 °F 15.4 °F 24.8 °F 86% 30.04 in 3.0 mi NNW 19.6 mph 27.6 mph N/A Rain Light Freezing Rain
2:55 PM 28.4 °F 14.1 °F 24.8 °F 86% 30.05 in 1.8 mi NNW 24.2 mph 31.1 mph N/A   Light Freezing Rain
3:15 PM 28.4 °F 13.5 °F 24.8 °F 86% 30.06 in 0.8 mi NNW 26.5 mph 33.4 mph N/A   Overcast
3:35 PM 28.4 °F 14.1 °F 24.8 °F 86% 30.07 in 1.2 mi NNW 24.2 mph 34.5 mph N/A   Mostly Cloudy
3:55 PM 26.6 °F 12.0 °F 24.8 °F 93% 30.08 in 1.8 mi NNW 23.0 mph 31.1 mph N/A   Overcast
4:15 PM 26.6 °F 12.0 °F 24.8 °F 93% 30.09 in 4.0 mi NNW 23.0 mph 28.8 mph N/A Rain Light Freezing Rain
4:35 PM 26.6 °F 12.4 °F 23.0 °F 86% 30.11 in 6.0 mi NNW 21.9 mph - N/A Rain Light Freezing Rain
4:55 PM 26.6 °F 12.4 °F 23.0 °F 86% 30.11 in 7.0 mi NNW 21.9 mph - N/A Rain Light Freezing Rain
5:15 PM 26.6 °F 11.7 °F 23.0 °F 86% 30.12 in 8.0 mi NNW 24.2 mph 31.1 mph N/A Rain Light Freezing Rain
5:35 PM 26.6 °F 12.0 °F 23.0 °F 86% 30.13 in 9.0 mi NNW 23.0 mph - N/A   Overcast
5:55 PM 26.6 °F 12.4 °F 23.0 °F 86% 30.15 in 5.0 mi NNW 21.9 mph 27.6 mph N/A   Light Freezing Rain
6:15 PM 26.6 °F 12.4 °F 21.2 °F 80% 30.16 in 8.0 mi NNW 21.9 mph 28.8 mph N/A   Light Freezing Rain
6:35 PM 24.8 °F 10.0 °F 21.2 °F 86% 30.16 in 6.0 mi NNW 21.9 mph - N/A   Light Freezing Rain
6:55 PM 24.8 °F 11.1 °F 21.2 °F 86% 30.18 in 10.0 mi NNW 18.4 mph 26.5 mph N/A   Overcast
7:15 PM 24.8 °F 11.9 °F 21.2 °F 86% 30.18 in 10.0 mi NNW 16.1 mph 26.5 mph N/A   Overcast
7:35 PM 24.8 °F 11.5 °F 21.2 °F 86% 30.19 in 10.0 mi NNW 17.3 mph 23.0 mph N/A   Overcast
7:55 PM 24.8 °F 11.5 °F 21.2 °F 86% 30.20 in 10.0 mi NNW 17.3 mph - N/A   Overcast
8:15 PM 24.8 °F 11.5 °F 23.0 °F 93% 30.21 in 10.0 mi NNW 17.3 mph - N/A   Overcast
8:35 PM 24.8 °F 11.5 °F 23.0 °F 93% 30.21 in 10.0 mi NNW 17.3 mph 23.0 mph N/A Rain Light Freezing Rain
8:55 PM 24.8 °F 11.9 °F 23.0 °F 93% 30.21 in 8.0 mi NNW 16.1 mph 23.0 mph N/A   Overcast
9:15 PM 24.8 °F 10.3 °F 21.2 °F 86% 30.22 in 10.0 mi NNW 20.7 mph 32.2 mph N/A Rain Light Freezing Rain
9:35 PM 24.8 °F 10.3 °F 21.2 °F 86% 30.24 in 10.0 mi NNW 20.7 mph - N/A   Light Freezing Rain
9:55 PM 24.8 °F 10.0 °F 21.2 °F 86% 30.23 in 10.0 mi NNW 21.9 mph 27.6 mph N/A Rain Light Freezing Rain
10:15 PM 24.8 °F 11.1 °F 21.2 °F 86% 30.24 in 10.0 mi NNW 18.4 mph 25.3 mph N/A   Overcast
10:35 PM 23.0 °F 7.6 °F 21.2 °F 93% 30.25 in 10.0 mi NNW 21.9 mph - N/A   Overcast
10:55 PM 23.0 °F 6.9 °F 21.2 °F 93% 30.26 in 10.0 mi NNW 24.2 mph - N/A   Overcast
11:15 PM 23.0 °F 8.0 °F 21.2 °F 93% 30.27 in 10.0 mi NNW 20.7 mph 29.9 mph N/A   Light Freezing Rain
11:35 PM 23.0 °F 9.6 °F 21.2 °F 93% 30.27 in 10.0 mi NNW 16.1 mph 24.2 mph N/A   Overcast
11:55 PM 23.0 °F 10.1 °F 19.4 °F 86% 30.27 in 10.0 mi NNW 15.0 mph - N/A   Overcast